Flag for Iceland Weather past 2 weeks in Reykjavik, Iceland

Now
27 °F

Snow flurries. Low clouds.


Feels Like: 19 °F
Forecast: N/A
Wind: 7 mph from Northwest

Location: Reykjavik Airport

Current Time: Dec 26, 2014 at 5:56:44 PM

Latest Report: Dec 26, 2014 at 5:00 PM


Visibility: 4 mi

Pressure: 29.86 "Hg

Humidity: 93%

Dew point: 25 °F

Location of ReykjavikLocation

Historic Weather in Reykjavik — Graph

°F

Reykjavik temperature yesterday

Maximum temperature yesterday: 34 °F (at 12:00 AM)
Minimum temperature yesterday: 25 °F (at 7:00 AM)
Average temperature yesterday: 30 °F

Past Weeks' High & Low Weather Summary

 TemperatureHumidityPressure
High41 °F (Dec 20, 6:00 PM)100% (Dec 18, 4:00 AM)30.27 "Hg (Dec 18, 4:00 AM)
Low16 °F (Dec 16, 2:00 AM)56% (Dec 23, 5:00 AM)28.41 "Hg (Dec 17, 10:00 PM)
Average29 °F79%29.29 "Hg
* Reported Dec 11 4:00 PM — Dec 26 4:00 PM, Reykjavik, Weather by CustomWeather, © 2014

Note: Actual official high and low records may vary slightly from our data, if they occured in-between our weather recording intervals... More about our weather records

Advertising

Reykjavik weather history for previous 24 hours

 ConditionsComfort  
Time TempWeatherWind HumidityBarometerVisibility
4:00 PM
Dec 26
28 °FSnow flurries. Overcast.10 mph86%29.83 "Hg2 mi
3:00 PM30 °FScattered showers. Scattered clouds.7 mph69%29.83 "HgN/A
2:00 PM30 °FPassing clouds.10 mph80%29.86 "HgN/A
1:00 PM30 °FPassing clouds.22 mph64%29.86 "HgN/A
12:00 PM30 °FPassing clouds.18 mph64%29.86 "HgN/A
11:00 AM32 °FPassing clouds.17 mph64%29.86 "HgN/A
10:00 AM30 °FSnow flurries. Partly cloudy.16 mph80%29.86 "HgN/A
9:00 AM30 °FScattered showers. Passing clouds.8 mph93%29.86 "HgN/A
8:00 AM30 °FSnow showers. Overcast.18 mph93%29.83 "Hg1 mi
7:00 AM32 °FSnow flurries. Overcast.15 mph87%29.86 "Hg4 mi
6:00 AM34 °FScattered showers. Mostly cloudy.18 mph75%29.86 "HgN/A
5:00 AM36 °FScattered showers. Mostly cloudy.20 mph70%29.86 "HgN/A
4:00 AM34 °FPartly cloudy.16 mph87%29.86 "HgN/A
3:00 AM36 °FScattered showers. Mostly cloudy.16 mph81%29.86 "HgN/A
2:00 AM34 °FSnow flurries. Mostly cloudy.14 mph87%29.86 "Hg4 mi
1:00 AM34 °FSnow flurries. Partly cloudy.16 mph93%29.89 "HgN/A
12:00 AM34 °FPartly cloudy.16 mph81%29.89 "HgN/A
11:00 PM
Dec 25
34 °FScattered showers. Overcast.8 mph93%29.92 "HgN/A
10:00 PM34 °FScattered showers. Overcast.14 mph93%29.95 "HgN/A
9:00 PM32 °FMostly cloudy.7 mph93%29.98 "HgN/A
8:00 PM34 °FLight snow. Mostly cloudy.14 mph87%30.01 "Hg2 mi
7:00 PM34 °FScattered showers. Passing clouds.10 mph93%30.01 "HgN/A
6:00 PM32 °FLight rain. Partly cloudy.10 mph93%30.04 "Hg2 mi
5:00 PM34 °FPartly cloudy.9 mph87%30.07 "HgN/A
Weather by CustomWeather, © 2014

See weather overviewHow to use our weather pages